This demonstration page uses our WeatherBlox Daily Observations layout. Learn more.

Left ArrowRight Arrow

34.16533, -84.80231

Hourly Observations for September 25, 2017

Temp ( °F °C ) Dew Point ( °F °C ) Humidity (%) Winds ( mph kmh ) Pressure ( in mb ) Visibility ( mi km ) Precip ( " mm )
12:53 am 00:53 Clear 64 17.8 64 17.8 100 100 Calm 29.98 1015 10 16 0.00 0.00
1:53 am 01:53 Clear 64 17.8 64 17.8 100 100 Calm 29.98 1015 9 14 0.00 0.00
2:53 am 02:53 Clear 63 17.2 63 17.2 100 100 Calm 29.98 1015 8 13 0.00 0.00
3:53 am 03:53 Clear 63 17.2 63 17.2 100 100 Calm 29.99 1016 9 14 0.00 0.00
4:53 am 04:53 Clear 63 17.2 63 17.2 100 100 Calm 29.99 1016 10 16 0.00 0.00
5:53 am 05:53 Clear 63 17.2 63 17.2 100 100 Calm 29.99 1016 9 14 0.00 0.00
6:53 am 06:53 Clear 63 17.2 63 17.2 100 100 Calm 30.00 1016 9 14 0.00 0.00
7:53 am 07:53 Sunny 62 16.7 62 16.7 100 100 Calm 30.01 1016 7 11 0.00 0.00
8:53 am 08:53 Sunny 66 18.9 66 18.9 100 100 Calm 30.03 1017 10 16 0.00 0.00
9:53 am 09:53 Sunny 72 22.2 68 20 87 87 Calm 30.03 1017 10 16 0.00 0.00
10:53 am 10:53 Sunny 79 26.1 66 18.9 65 65 VRB 3 6 30.03 1017 10 16 0.00 0.00
11:53 am 11:53 Sunny 81 27.2 63 17.2 54 54 E 5 7 30.02 1017 10 16 0.00 0.00
12:53 pm 12:53 Sunny 83 28.3 64 17.8 53 53 VRB 5 7 30.01 1016 10 16 0.00 0.00
1:53 pm 13:53 Mostly Sunny 85 29.4 62 16.7 46 46 VRB 6 9 29.99 1016 10 16 0.00 0.00
2:53 pm 14:53 Mostly Sunny 85 29.4 62 16.7 46 46 VRB 5 7 29.96 1015 10 16 0.00 0.00
3:53 pm 15:53 Sunny 86 30 61 16.1 43 43 ENE 5 7 29.93 1014 10 16 0.00 0.00
4:53 pm 16:53 Sunny 86 30 61 16.1 43 43 VRB 6 9 29.91 1013 10 16 0.00 0.00
5:53 pm 17:53 Sunny 85 29.4 62 16.7 46 46 ENE 3 6 29.91 1013 10 16 0.00 0.00
6:53 pm 18:53 Sunny 77 25 68 20 74 74 Calm 29.91 1013 10 16 0.00 0.00
7:53 pm 19:53 Clear 69 20.6 68 20 96 96 Calm 29.91 1013 10 16 0.00 0.00
8:53 pm 20:53 Clear 68 20 66 18.9 93 93 Calm 29.93 1014 10 16 0.00 0.00
9:53 pm 21:53 Clear 66 18.9 65 18.3 96 96 Calm 29.94 1014 10 16 0.00 0.00
10:53 pm 22:53 Clear 64 17.8 64 17.8 100 100 Calm 29.94 1014 10 16 0.00 0.00
11:53 pm 23:53 Clear 65 18.3 65 18.3 100 100 Calm 29.95 1014 10 16 0.00 0.00

Powered by AerisWeather